[[{"header":{"parameterUnit":"m.s-1","parameterCategory":1,"la1":30.2991,"la2":30.254,"lo1":-89.0895,"lo2":-89.0444,"dy":0.0017,"dx":0.0017,"nx":28,"ny":28,"refTime":"2025-12-22T03:00:00:Z","depth":0,"parameterNumber":2,"parameterNumberName":"U-component_of_WINDS"},"data":[0,0,0,0,0,0,0,0,0,0,0,0,0,0,0,0,0,0,0,0,0,0,0,0,0,0,0,0,0,0,0,0,0,0,0,0,0,0,0,0,0,0,0,0,0,0,0,0,0,0,0,0,0,0,0,0,0,0,-2.2753,-2.2753,0,-2.2802,-2.2802,-2.2803,-2.2774,-2.2773,-2.2771,-2.277,-2.2828,-2.2831,-2.2834,0,0,0,0,0,0,0,0,0,0,0,0,0,-2.2644,-2.2647,-2.2753,-2.2753,-2.2754,-2.2801,-2.2802,-2.2803,-2.2774,-2.2773,-2.2771,-2.2769,-2.2827,-2.2831,-2.2834,0,0,0,0,0,0,0,0,0,0,0,0,0,-2.2692,-2.2647,-2.2753,-2.2745,-2.2745,-2.2801,-2.2802,-2.2803,-2.2775,-2.2773,-2.2771,-2.2769,-2.2826,-2.283,-2.2835,-2.2904,0,0,-2.2848,-2.285,0,0,0,0,0,0,0,0,-2.269,-2.2696,-2.2746,-2.2746,-2.2746,-2.2779,-2.2785,-2.2837,-2.2775,-2.2764,-2.277,-2.2768,-2.2814,-2.282,-2.2834,-2.2906,-2.2909,-2.2848,-2.2851,-2.2853,-2.2854,0,0,0,0,0,0,0,-2.2686,-2.2694,-2.2772,-2.2747,-2.2747,-2.2743,-2.2747,-2.2795,-2.2801,-2.2765,-2.2763,-2.2768,-2.2814,-2.2829,-2.2835,-2.291,-2.2848,-2.2852,-2.2855,-2.2856,-2.3043,-2.3046,0,0,0,0,0,0,-2.2682,-2.2692,-2.2771,-2.2774,-2.2712,-2.2746,-2.2751,-2.2771,-2.28,-2.2802,-2.277,-2.2767,-2.2823,-2.283,-2.2837,-2.2919,-2.2853,-2.2857,-2.2859,-2.3041,-2.3044,-2.3047,0,0,0,0,0,0,-2.268,-2.269,-2.2769,-2.2732,-2.2742,-2.275,-2.2773,-2.2773,-2.2788,-2.2804,-2.2806,-2.2784,-2.2822,-2.2831,-2.2887,-2.2921,-2.2859,-2.2863,-2.3038,-2.3042,-2.3045,-2.3085,0,0,0,0,0,0,-2.2677,-2.2689,-2.2713,-2.2733,-2.2744,-2.2815,-2.2775,-2.2775,-2.2795,-2.2791,-2.2818,-2.282,-2.2821,-2.2881,-2.2891,-2.2926,-2.2866,-2.3035,-2.304,-2.3044,-2.3081,-2.309,-2.3097,0,0,0,0,0,-2.2673,-2.2724,-2.2714,-2.2724,-2.2773,-2.2817,-2.2824,-2.2821,-2.2797,-2.2823,-2.2834,-2.2819,-2.2916,-2.2887,-2.2898,-2.2935,-2.3033,-2.3039,-2.3044,-2.3077,-2.3088,-2.3097,0,0,0,0,0,0,-2.271,-2.2726,-2.2716,-2.2773,-2.2794,-2.2812,-2.2844,-2.2833,-2.2862,-2.2858,-2.2856,-2.2863,-2.2921,-2.2934,-2.2901,-2.3004,-2.2971,-2.2979,-2.2993,-2.3003,-2.3011,-2.3007,-2.2869,0,0,0,0,0,-2.2724,-2.2756,-2.277,-2.2819,-2.283,-2.2835,-2.2855,-2.2851,-2.2873,-2.2882,-2.2897,-2.2922,-2.2958,-2.2981,-2.3016,-2.3084,-2.309,-2.3115,-2.3123,-2.313,-2.3136,-2.3175,-2.3186,-2.3064,-2.3064,-2.3064,0,0,-2.2755,-2.2768,-2.2788,-2.2827,-2.2842,-2.2878,-2.2843,-2.2882,-2.2909,-2.2889,-2.2942,-2.2954,-2.2982,-2.3045,-2.3073,-2.3057,-2.3172,-2.3137,-2.3142,-2.3145,-2.3181,-2.3193,-2.3203,-2.3068,-2.3067,-2.3067,0,0,-2.2829,-2.2841,-2.2884,-2.29,-2.2923,-2.2927,-2.2937,-2.2958,-2.2964,-2.3017,-2.3003,-2.3038,-2.3099,-2.312,-2.3138,-2.3222,-2.3211,-2.3234,-2.3277,-2.3314,-2.3323,-2.3332,-2.3362,-2.3373,-2.3241,-2.3241,-2.3241,0,-2.2865,-2.2914,-2.2908,-2.2948,-2.2966,-2.2948,-2.2993,-2.301,-2.3045,-2.3059,-2.3041,-2.3118,-2.3136,-2.3203,-2.3224,-2.324,-2.3253,-2.323,-2.3322,-2.3331,-2.3338,-2.3367,-2.3379,-2.3244,-2.3243,-2.3243,-2.3243,0,-2.2957,-2.2993,-2.3025,-2.3055,-2.3078,-2.312,-2.3124,-2.3148,-2.3143,-2.315,-2.3206,-2.3226,-2.3265,-2.3281,-2.3278,-2.3349,-2.3338,-2.3321,-2.3288,-2.3353,-2.338,-2.3391,-2.3247,-2.3246,-2.3246,-2.3245,0,0,-2.3054,-2.3081,-2.3093,-2.3107,-2.3132,-2.316,-2.3204,-2.3239,-2.326,-2.3286,-2.3323,-2.3376,-2.3361,-2.3382,-2.3381,-2.3414,-2.348,-2.3393,-2.3394,-2.3409,-2.3562,-2.3573,-2.3586,-2.3474,-2.3476,-2.3477,-2.3559,0,-2.3128,-2.3199,-2.3196,-2.3264,-2.3298,-2.3282,-2.3321,-2.3342,-2.335,-2.3383,-2.3393,-2.3431,-2.3407,-2.342,-2.3452,-2.3465,-2.3511,-2.346,-2.351,-2.3512,-2.3502,-2.36,-2.3613,-2.3688,-2.357,-2.3572,-2.3573,0,-2.3224,-2.325,-2.332,-2.3341,-2.3355,-2.3388,-2.3421,-2.3451,-2.3477,-2.3481,-2.3505,-2.35,-2.3547,-2.3514,-2.358,-2.3545,-2.3567,-2.3577,-2.358,-2.3584,-2.3545,-2.3606,-2.3713,-2.3724,-2.359,-2.3588,-2.3587,0,-2.3287,-2.334,-2.3388,-2.3401,-2.3427,-2.3451,-2.3464,-2.3487,-2.3508,-2.3539,-2.3553,-2.359,-2.361,-2.3639,-2.3645,-2.362,-2.3713,-2.3679,-2.3719,-2.3719,-2.3738,-2.3736,-2.3848,-2.3753,-2.3753,-2.3753,-2.3753,0,-2.337,-2.3413,-2.3416,-2.3446,-2.3496,-2.3495,-2.3545,-2.3556,-2.3577,-2.3611,-2.3603,-2.3636,-2.3642,-2.3678,-2.3684,-2.3738,-2.3748,-2.3754,-2.3755,-2.3754,-2.3753,-2.3767,-2.3762,-2.3756,-2.3755,-2.3755,-2.3754,0,-2.3447,-2.3451,-2.3503,-2.3523,-2.3529,-2.3565,-2.3584,-2.3614,-2.3622,-2.3666,-2.3677,-2.369,-2.3732,-2.3741,-2.3792,-2.3796,-2.386,-2.3857,-2.3851,-2.385,-2.3889,-2.3885,-2.4013,-2.403,-2.3924,-2.3925,-2.3926,0,-2.3499,-2.3531,-2.3555,-2.3575,-2.3588,-2.3623,-2.3644,-2.3646,-2.3669,-2.3702,-2.3729,-2.3769,-2.3801,-2.3869,-2.3885,-2.3925,-2.3922,-2.3964,-2.3927,-2.3926,-2.3922,-2.3919,-2.3923,-2.397,-2.3972,-2.3972,-2.3973,0,-2.3591,-2.3591,-2.362,-2.3651,-2.3677,-2.3702,-2.3726,-2.3745,-2.375,-2.3778,-2.3819,-2.3843,-2.3894,-2.3935,-2.3975,-2.3991,-2.3984,-2.3985,-2.3996,-2.3995,-2.399,-2.3993,-2.3869,-2.3981,-2.3981,-2.398,-2.398,-2.3979,-2.3656,-2.3685,-2.3706,-2.374,-2.3758,-2.3781,-2.381,-2.3821,-2.3854,-2.3893,-2.3894,-2.3939,-2.3967,-2.4019,-2.4038,-2.4076,-2.4063,-2.4079,-2.4083,-2.4087,-2.409,-2.3984,-2.4083,-2.4083,-2.4083,-2.4083,-2.4083,0,-2.3747,-2.376,-2.3791,-2.3824,-2.3852,-2.384,-2.3867,-2.3892,-2.393,-2.3955,-2.3987,-2.4035,-2.4075,-2.4095,-2.4136,-2.4162,-2.416,-2.4173,-2.4171,-2.4175,-2.4099,-2.4085,-2.4174,-2.4174,-2.4174,-2.4174,-2.4174,-2.4174,-2.3798,-2.3845,-2.3849,-2.3907,-2.3921,-2.3962,-2.3978,-2.4001,-2.4021,-2.4074,-2.4106,-2.4118,-2.4142,-2.4185,-2.4222,-2.4227,-2.4243,-2.4257,-2.4261,-2.419,-2.418,-2.4171,-2.4158,-2.4261,-2.4261,-2.4333,-2.4334,-2.4334]},{"header":{"parameterUnit":"m.s-1","parameterCategory":1,"la1":30.2991,"la2":30.254,"lo1":-89.0895,"lo2":-89.0444,"dy":0.0017,"dx":0.0017,"nx":28,"ny":28,"refTime":"2025-12-22T03:00:00:Z","depth":0,"parameterNumber":3,"parameterNumberName":"V-component_of_WINDS"},"data":[0,0,0,0,0,0,0,0,0,0,0,0,0,0,0,0,0,0,0,0,0,0,0,0,0,0,0,0,0,0,0,0,0,0,0,0,0,0,0,0,0,0,0,0,0,0,0,0,0,0,0,0,0,0,0,0,0,0,1.2273,1.2273,0,1.2247,1.2247,1.2247,1.2221,1.2221,1.222,1.222,1.219,1.219,1.2189,0,0,0,0,0,0,0,0,0,0,0,0,0,1.2298,1.2298,1.2273,1.2273,1.2272,1.2247,1.2247,1.2246,1.2221,1.2221,1.222,1.222,1.2191,1.219,1.2189,0,0,0,0,0,0,0,0,0,0,0,0,0,1.2281,1.2298,1.2273,1.2257,1.2255,1.2247,1.2247,1.2246,1.2221,1.2221,1.222,1.222,1.2191,1.219,1.2189,1.2195,0,0,1.2187,1.2187,0,0,0,0,0,0,0,0,1.2282,1.228,1.2259,1.2258,1.2256,1.2237,1.2245,1.2229,1.2221,1.2234,1.222,1.2219,1.2206,1.2204,1.22,1.2194,1.2192,1.2187,1.2187,1.2186,1.2186,0,0,0,0,0,0,0,1.2283,1.2281,1.2263,1.2259,1.2257,1.225,1.2247,1.2242,1.2223,1.2233,1.2231,1.2228,1.2205,1.2201,1.2199,1.2192,1.2187,1.2186,1.2186,1.2186,1.219,1.2191,0,0,0,0,0,0,1.2287,1.2282,1.2263,1.2262,1.2268,1.225,1.2247,1.2243,1.2223,1.2219,1.2229,1.2227,1.2202,1.22,1.2198,1.2205,1.2186,1.2186,1.2185,1.219,1.219,1.2191,0,0,0,0,0,0,1.2288,1.2286,1.2264,1.2272,1.2268,1.225,1.2247,1.2243,1.2239,1.222,1.2216,1.2228,1.2202,1.2199,1.2197,1.2203,1.2185,1.2185,1.2189,1.219,1.2191,1.2217,0,0,0,0,0,0,1.2289,1.2286,1.2289,1.2272,1.2268,1.2264,1.2247,1.2243,1.2238,1.2236,1.2219,1.2215,1.2201,1.2198,1.2196,1.2202,1.2184,1.2188,1.2189,1.219,1.2215,1.2219,1.2221,0,0,0,0,0,1.229,1.2296,1.2289,1.2287,1.2271,1.2264,1.2262,1.2247,1.2239,1.2241,1.2229,1.2216,1.2203,1.2198,1.2195,1.2201,1.2188,1.2189,1.219,1.2214,1.2218,1.2221,0,0,0,0,0,0,1.2312,1.2293,1.2285,1.2286,1.2277,1.226,1.2262,1.2251,1.2244,1.2242,1.2222,1.2219,1.2218,1.2209,1.2204,1.2206,1.2194,1.2194,1.2213,1.2216,1.2219,1.2221,1.2184,0,0,0,0,0,1.2318,1.2315,1.2298,1.2301,1.2297,1.228,1.2277,1.2266,1.2256,1.2252,1.2239,1.2229,1.2222,1.2219,1.2212,1.2214,1.221,1.2217,1.222,1.2223,1.2224,1.2226,1.2229,1.2195,1.2195,1.2195,0,0,1.2328,1.2318,1.2317,1.2305,1.2297,1.2294,1.2277,1.2275,1.2272,1.2251,1.2248,1.2239,1.2226,1.2227,1.2226,1.2219,1.2232,1.2224,1.2226,1.2226,1.2227,1.2231,1.2233,1.2196,1.2196,1.2195,0,0,1.2347,1.2338,1.234,1.2333,1.2321,1.231,1.2311,1.2296,1.2289,1.2286,1.2271,1.2267,1.2256,1.2249,1.2243,1.226,1.2248,1.2258,1.2274,1.2276,1.2279,1.2281,1.2288,1.2291,1.2259,1.2259,1.2259,0,1.2361,1.2357,1.2342,1.2341,1.2337,1.2319,1.2321,1.2314,1.23,1.2297,1.229,1.2277,1.2267,1.2266,1.2271,1.2267,1.2267,1.226,1.228,1.2282,1.2284,1.2291,1.2293,1.2261,1.2261,1.226,1.226,0,1.2376,1.2374,1.2377,1.2366,1.2361,1.2362,1.2347,1.2344,1.2334,1.2324,1.2323,1.231,1.2301,1.23,1.2289,1.2298,1.2294,1.2283,1.227,1.2289,1.2295,1.2297,1.2263,1.2262,1.2262,1.2262,0,0,1.2408,1.239,1.2391,1.2386,1.2373,1.237,1.237,1.2363,1.2361,1.2353,1.2352,1.2345,1.2335,1.2329,1.2318,1.232,1.2336,1.2309,1.2308,1.2315,1.2346,1.2355,1.2358,1.2328,1.2328,1.2328,1.2347,0,1.2424,1.2424,1.2411,1.2414,1.2412,1.2396,1.2396,1.2387,1.2378,1.2375,1.2364,1.236,1.2347,1.2344,1.2345,1.2334,1.2342,1.2332,1.2327,1.2327,1.2332,1.2361,1.237,1.2388,1.235,1.235,1.235,0,1.2444,1.2438,1.2442,1.2429,1.2428,1.2428,1.2421,1.2418,1.2408,1.2402,1.2396,1.2384,1.2383,1.237,1.2369,1.2362,1.236,1.2354,1.2354,1.2354,1.234,1.2362,1.2394,1.2397,1.2353,1.2353,1.2353,0,1.2468,1.2461,1.2462,1.2459,1.2444,1.2445,1.2439,1.2429,1.2426,1.2419,1.2417,1.241,1.2406,1.2401,1.2388,1.2379,1.2388,1.2374,1.2383,1.2383,1.2386,1.2386,1.2419,1.2383,1.2383,1.2383,1.2383,0,1.2488,1.2492,1.2473,1.2474,1.2478,1.2463,1.2466,1.2458,1.2449,1.2449,1.2433,1.2432,1.2414,1.2411,1.24,1.2402,1.24,1.2394,1.2392,1.2396,1.2397,1.2395,1.2393,1.2383,1.2383,1.2383,1.2383,0,1.2516,1.2504,1.2505,1.2492,1.2488,1.2491,1.248,1.248,1.2471,1.247,1.2469,1.2454,1.245,1.2436,1.2428,1.2421,1.2426,1.242,1.243,1.2428,1.2438,1.2438,1.2471,1.2475,1.2436,1.2437,1.2437,0,1.2531,1.2533,1.252,1.2519,1.2514,1.2512,1.251,1.2495,1.2492,1.2483,1.2484,1.248,1.2475,1.247,1.2458,1.2453,1.2447,1.2459,1.2446,1.2451,1.2449,1.2449,1.245,1.2462,1.2462,1.2463,1.2463,0,1.2558,1.2552,1.2549,1.2545,1.2542,1.2537,1.2532,1.2531,1.2515,1.2513,1.251,1.2507,1.25,1.2496,1.2489,1.2482,1.247,1.2468,1.247,1.2475,1.2481,1.2479,1.2439,1.2467,1.2466,1.2466,1.2466,1.2466,1.258,1.2582,1.2574,1.2571,1.2566,1.2561,1.2562,1.2553,1.255,1.2544,1.2536,1.2534,1.2525,1.2515,1.2509,1.2507,1.25,1.2503,1.2504,1.2505,1.2508,1.2481,1.2506,1.2505,1.2505,1.2505,1.2505,0,1.2607,1.2602,1.26,1.2593,1.2591,1.2581,1.2575,1.2574,1.2573,1.2566,1.2563,1.256,1.2556,1.2545,1.254,1.2541,1.2535,1.254,1.254,1.2539,1.2513,1.2513,1.2545,1.2545,1.2545,1.2545,1.2545,1.2545,1.2622,1.2625,1.2618,1.2619,1.2613,1.2612,1.2609,1.2605,1.26,1.2597,1.2595,1.2588,1.2579,1.2574,1.257,1.2567,1.2566,1.2573,1.2568,1.2544,1.2541,1.2537,1.2537,1.2573,1.2573,1.2594,1.2594,1.2594]}]]